Regional Weather Roundup
Issued by NWS

Home | Current Version | Previous Version | Graphics & Text | Print | Product List | Glossary On
Versions: 1 2 3 4 5 6 7 8 9 10 11 12 13 14 15 16 17 18 19 20 21 22 23 24 25 26 27 28 29 30 31 32 33 34 35 36 37 38 39 40 41 42 43 44 45 46 47 48 49 50
000
ASUS43 KLOT 292103
RWRIL

ILLINOIS REGIONAL WEATHER ROUNDUP
NATIONAL WEATHER SERVICE CHICAGO/ROMEOVILLE IL
400 PM CDT MON AUG 29 2016

NOTE: "FAIR" INDICATES FEW OR NO CLOUDS BELOW 12,000 FEET WITH NO
SIGNIFICANT WEATHER AND/OR OBSTRUCTIONS TO VISIBILITY.

* THESE STATIONS ARE NOT UNDER NWS QUALITY CONTROL. THEY ALSO MAY NOT
  REPORT WEATHER SUCH AS PRECIPITATION OR FOG.

ILZ001-002-007-009-015-016-024-292200-
NORTHWEST ILLINOIS

CITY           SKY/WX    TMP DP  RH WIND       PRES   REMARKS
MOLINE         CLOUDY    81  68  64 S10       30.17F HX  84
STERLING*      TSTM      71  68  90 N12       30.18F
SAVANNA*       CLOUDY    87  73  62 CALM      30.16F HX  95
$$

ILZ003-004-008-010-011-017-018-292200-
NORTH CENTRAL ILLINOIS

CITY           SKY/WX    TMP DP  RH WIND       PRES   REMARKS
ROCKFORD       PTSUNNY   83  72  69 E6        30.18F HX  88
FREEPORT*      MOSUNNY   83  73  70 CALM      30.19F HX  89
ROCHELLE*      LGT RAIN  75  73  91 CALM      30.20R
$$

ILZ005-006-012>014-019>023-292200-
NORTHEAST ILLINOIS

CITY           SKY/WX    TMP DP  RH WIND       PRES   REMARKS
CHICAGO-OHARE  CLOUDY    75  72  90 N6        30.19F THUNDER
CHICAGO-MIDWAY CLOUDY    83  70  64 NE9       30.17F THUNDER HX  87
AURORA         PTSUNNY   80  72  76 N5        30.18F HX  84
LANSING*       MOSUNNY   86  74  66 CALM      30.17F HX  94
JOLIET*        PTSUNNY   85  74  70 SE5       30.17S HX  93
WAUKEGAN       CLOUDY    81  71  71 NE7       30.19F HX  85
DUPAGE AIRPORT TSTM      73  68  84 NE8       30.19S
KANKAKEE*      SUNNY     87  69  55 SE3       30.17F HX  91
WHEELING       CLOUDY    77  72  84 E6        30.21F
MORRIS*        MOSUNNY   83  73  71 SE3       30.16S HX  90
ROMEOVILLE*    CLOUDY    82  76  80 N3        30.18S HX  90
$$

LMZ740>746-292200-
SOUTHERN LAKE MICHIGAN

STATION/POSITION SKY/WX   TEMP    WIND        PRES    VSBY  WAVE
                          AIR SEA DIR/SP/G                  HT/PER
                          (F)     (DEG/KT/KT) (MB)    (MI)  (FT/S)
SOUTHERN BUOY              76 80  170/  2/  4 1022.7          1
WILMETTE HARBOR            75 75   70/  8/ 10   N/A           1/ 2
HARRISON CRIB              76      40/ 11/ 12   N/A
BURNHAM HARBOR             76     360/  5/  8   N/A
CALUMET HARBOR             79      30/  9/ 12 1021.9F
BURNS HARBOR               79      50/  4/ 10 1022.4F
MICHIGAN CITY              78     350/ 10/ 10   N/A
MICHIGAN CITY 6N           78 77   20/  6/  8   N/A           0
ST. JOSEPH                 77 77   10/ 10/ 10 1022.6F         1
$$

ILZ025>027-034>036-040-047-049-050-058-095>099-292200-
WEST-CENTRAL ILLINOIS

CITY           SKY/WX    TMP DP  RH WIND       PRES   REMARKS
QUINCY         LGT RAIN  76  72  87 NW3       30.15F
MACOMB*        CLOUDY    85  75  73 CALM      30.17F HX  93
JACKSONVILLE*  SUNNY     88  74  63 SE6       30.13F HX  97
PITTSFIELD*    PTSUNNY   90  74  60 E3        30.13F HX  99
$$

ILZ028>032-037-038-041>044-048-051>054-059>061-292200-
CENTRAL ILLINOIS

CITY           SKY/WX    TMP DP  RH WIND       PRES   REMARKS
PONTIAC        SUNNY     88  76  67 SE3       30.17F HX  98
BLOOMINGTON    MOSUNNY   86  74  67 SE9       30.17F HX  94
DECATUR        SUNNY     89  73  59 MISG      30.15F HX  97
PEORIA         MOSUNNY   87  74  64 SE8       30.15F HX  95
LACON*         MOSUNNY   86  72  62 CALM      30.15F HX  92
LINCOLN*       MOSUNNY   90  76  63 SE3       30.14F HX 101
SPRINGFIELD    MOSUNNY   90  74  59 SE7       30.14F HX  99
TAYLORVILLE    SUNNY     88  73  61 E3        30.14F HX  95
$$

ILZ033-039-045-046-055>057-062-063-292200-
EAST-CENTRAL ILLINOIS

CITY           SKY/WX    TMP DP  RH WIND       PRES   REMARKS
CHAMPAIGN      MOSUNNY   86  74  67 SE5       30.16F HX  94
RANTOUL*       MOSUNNY   88  73  59 SE5       30.16F HX  95
MATTOON        SUNNY     87  70  56 CALM      30.15F HX  92
PARIS*         MOSUNNY   88  75  65 CALM      30.16F HX  97
$$

ILZ079-100>102-292200-
SOUTHWEST ILLINOIS

CITY           SKY/WX    TMP DP  RH WIND       PRES   REMARKS
BELLEVILLE     MOSUNNY   92  73  53 SE7       30.10F HX 101
CAHOKIA*       SUNNY     93  71  48 E5        30.10F HX 100
SPARTA*        MOSUNNY   89  76  64 E7        30.13F HX 100
$$

ILZ064>066-069>071-074>076-080>082-084>086-088>090-092>094-292200-
SOUTH-CENTRAL ILLINOIS

CITY           SKY/WX    TMP DP  RH WIND       PRES   REMARKS
CARBONDALE     SUNNY     89  72  56 NE7       30.12F HX  96
EFFINGHAM*     SUNNY     87  74  65 E5        30.16F HX  96
MARION         SUNNY     91  73  55 E6        30.13F HX 100
MT. VERNON     SUNNY     90  70  51 E5        30.13F HX  95
CENTRALIA*     SUNNY     90  77  66 E5        30.12F HX 102
SALEM*         MOSUNNY   90  74  59 NE5       30.13F HX  99
METROPOLIS*    MOSUNNY   92  74  55 N7        30.11F HX 102
$$

ILZ067-068-072-073-078-083-087-091-292200-
SOUTHEAST ILLINOIS

CITY           SKY/WX    TMP DP  RH WIND       PRES   REMARKS
LAWRENCEVILLE  SUNNY     91  71  51 NE8       30.14F HX  97
FLORA*         SUNNY     91  73  56 E6        30.14F HX  99
FAIRFIELD*     SUNNY     89  70  52 SE3       30.12F HX  94
HARRISBURG*    SUNNY     91  72  54 NE3       30.12F HX  98
ROBINSON*      SUNNY     88  74  64 NE5       30.15F HX  96
CARMI*         SUNNY     90  73  57 NE6       30.11F HX  98
$$

ABBREVIATIONS USED IN REMARKS
   TC - TEMPERATURE IN CELSIUS
  WCI - WIND CHILL INDEX
   HX - HEAT INDEX
  VSB - VISIBILITY
$$





USA.gov is the U.S. government's official web portal to all federal, state and local government web resources and services.